This demonstration page uses our WeatherBlox Daily Observations layout. Learn more.

Left ArrowRight Arrow

Hourly Observations for June 30, 2018

Temp ( °F °C ) Dew Point ( °F °C ) Humidity (%) Winds ( mph kmh ) Pressure ( in mb ) Visibility ( mi km ) Precip ( " mm )
12:53 am 00:53 Clear 82 27.8 69 20.6 65 65 S 9 15 29.72 1006 10 16 0.00 0.00
1:53 am 01:53 Clear 81 27.2 70 21.1 69 69 S 15 24 29.71 1006 10 16 0.00 0.00
2:53 am 02:53 Clear 80 26.7 70 21.1 71 71 S 13 20 29.71 1006 10 16 0.00 0.00
3:53 am 03:53 Clear 78 25.6 71 21.7 79 79 WSW 3 6 29.75 1008 10 16 0.00 0.00
4:53 am 04:53 Mostly Cloudy 76 24.4 71 21.7 85 85 VRB 3 6 29.75 1008 10 16 0.00 0.00
5:30 am 05:30 Mostly Cloudy 75 24 72 22 89 89 Calm 29.74 1007 10 16 0.00 0.00
5:53 am 05:53 Cloudy 76 24.4 71 21.7 85 85 Calm 29.79 1009 10 16 0.00 0.00
6:15 am 06:15 Mostly Cloudy 74 23.3 71 21.7 91 91 NNE 7 11 29.77 1008 10 16 0.00 0.00
6:53 am 06:53 Sunny 73 22.8 71 21.7 94 94 NNE 7 11 29.80 1009 10 16 0.00 0.00
7:53 am 07:53 Sunny 73 22.8 70 21.1 90 90 NNE 8 13 29.82 1010 10 16 0.00 0.00
8:53 am 08:53 Sunny 74 23.3 70 21.1 88 88 NE 8 13 29.83 1010 10 16 0.00 0.00
9:19 am 09:19 Mostly Cloudy 74 23.3 70 21.1 88 88 NNE 9 15 29.83 1010 10 16 0.00 0.00
9:53 am 09:53 Cloudy 75 23.9 70 21.1 84 84 NNE 13 20 29.83 1010 10 16 0.00 0.00
10:22 am 10:22 Partly Cloudy 77 25 72 22 83 83 NNE 15 24 29.80 1009 10 16 0.00 0.00
10:53 am 10:53 Mostly Cloudy 78 25.6 72 22.2 82 82 ENE 12 19 29.83 1010 10 16 0.00 0.00
11:23 am 11:23 Mostly Cloudy 79 26 72 22 79 79 E 9 15 29.80 1009 10 16 0.00 0.00
11:53 am 11:53 Mostly Cloudy 78 25.6 72 22.2 82 82 ENE 12 19 29.85 1011 10 16 0.00 0.00
12:15 pm 12:15 Mostly Cloudy 79 26.1 72 22.2 79 79 E 8 13 29.80 1009 10 16 0.00 0.00
12:37 pm 12:37 Cloudy 78 25.6 72 22.2 82 82 ENE 8 13 29.83 1010 10 16 0.00 0.00
12:53 pm 12:53 Cloudy 79 26.1 73 22.8 82 82 NE 9 15 29.83 1010 10 16 0.00 0.00
1:53 pm 13:53 Cloudy 78 25.6 73 22.8 85 85 ENE 8 13 29.85 1011 10 16 0.00 0.00
2:49 pm 14:49 Partly Cloudy 81 27 73 23 79 79 ENE 14 22 29.77 1008 10 16 0.00 0.00
2:53 pm 14:53 Partly Cloudy 80 26.7 73 22.8 79 79 ENE 14 22 29.82 1010 10 16 0.00 0.00
3:19 pm 15:19 Mostly Cloudy 80 26.7 73 22.8 79 79 NE 12 19 29.77 1008 10 16 0.00 0.00
3:53 pm 15:53 Cloudy 79 26.1 72 22.2 79 79 NE 12 19 29.84 1010 10 16 0.00 0.00
4:53 pm 16:53 Mostly Cloudy 77 25 71 21.7 82 82 NNE 15 24 29.83 1010 10 16 0.00 0.00
5:00 pm 17:00 Mostly Cloudy 77 25 72 22 83 83 NNE 16 26 29.80 1009 10 16 0.00 0.00
5:08 pm 17:08 Partly Cloudy with Nearby Thunderstorms 77 25 72 22 83 83 NNE 14 22 29.80 1009 10 16 0.00 0.00
5:33 pm 17:33 Mostly Cloudy with Thunderstorms 76 24.4 70 21.1 82 82 N 15 24 29.80 1009 10 16 0.00 0.00
5:53 pm 17:53 Cloudy with Thunderstorms 74 23.3 70 21.1 88 88 N 10 17 29.85 1011 5 8 0.03 0.76
6:03 pm 18:03 Cloudy with Strong Thunderstorms 73 23 70 21 89 89 ENE 3 6 29.80 1009 3 4 0.00 0.00
6:08 pm 18:08 Cloudy with Strong Thunderstorms 72 22 70 21 94 94 Calm 29.83 1010 1 1 0.00 0.00
6:19 pm 18:19 Cloudy with Strong Thunderstorms 72 22.2 70 21.1 94 94 VRB 3 6 29.77 1008 1 2 0.34 8.64
6:28 pm 18:28 Cloudy with Thunderstorms 73 23 72 22 94 94 ESE 10 17 29.74 1007 3 5 0.00 0.00
6:42 pm 18:42 Mostly Cloudy with Light Rain 73 23 72 22 94 94 ENE 7 11 29.71 1006 8 13 0.00 0.00
6:53 pm 18:53 Mostly Sunny 74 23.3 72 22.2 94 94 E 7 11 29.74 1007 10 16 0.37 9.40
7:53 pm 19:53 Sunny 73 22.8 70 21.1 90 90 NNE 6 9 29.76 1008 10 16 0.00 0.00
8:53 pm 20:53 Sunny 70 21.1 68 20 93 93 NE 9 15 29.75 1007 10 16 0.00 0.00
9:53 pm 21:53 Clear 70 21.1 67 19.4 90 90 ENE 9 15 29.73 1007 10 16 0.00 0.00
10:34 pm 22:34 Cloudy with Nearby Thunderstorms 70 21 64 18 83 83 NNE 9 15 29.74 1007 10 16 0.00 0.00
10:43 pm 22:43 Cloudy with Thunderstorms 68 20 65 18.3 90 90 NNE 9 15 29.77 1008 10 16 0.00 0.03
10:53 pm 22:53 Windy with Storms Likely 68 20 65 18.3 90 90 NW 20 31 29.83 1010 10 16 0.01 0.25
10:59 pm 22:59 Cloudy with Strong Thunderstorms 67 19.4 65 18.3 93 93 NW 35 56 29.85 1011 2 2 0.24 6.10
11:04 pm 23:04 Cloudy with Strong Thunderstorms 63 17.2 62 16.7 97 97 NW 36 57 29.88 1012 1 1 0.43 10.92
11:11 pm 23:11 Cloudy with Strong Thunderstorms 63 17.2 62 16.7 97 97 NW 23 37 29.88 1012 1 1 0.84 21.34
11:22 pm 23:22 Cloudy with Strong Thunderstorms 62 16.7 62 16.7 100 100 NW 12 19 29.91 1013 1 2 1.20 30.48
11:41 pm 23:41 Cloudy with Strong Thunderstorms 63 17.2 63 17.2 100 100 WNW 10 17 29.91 1013 3 5 1.40 35.56
11:53 pm 23:53 Cloudy with Thunderstorms 63 17.2 63 17.2 100 100 NW 14 22 29.89 1012 5 8 1.43 36.32

Powered by AerisWeather